Mare Island — WDC2198 — position and weather

sailwx.info

Track history (hours):
 
Tides and Currents Weather Stations Pressure Air Temp Water Temp Dewpoint Dewpoint Depression Visibility Wind Speed Wind Dir Waves Ship Positions

Mare Island

Owner: San Francisco Bay Area Water Emergency Transportation Authority, Vallejo, CA. More information available from US FCC via Universal Licensing System and Coast Guard Vessel Documentation Center.

Last reported at 2017-Oct-17 22:29 UTC. Time now 2017-Oct-17 22:53 UTC.
Position N 38°06' W 122°16'.

Length 42 m.

Type: Passenger vessel. MMSI: 366989380.

Date/timePositionNaut miles runAvg speedWind from/ knotsBaromVisibWave heightAir tempDewpointWater temp
2017-Oct-17 22:29N 38°06' W 122°16'0 0.0
2017-Oct-17 22:00N 38°06' W 122°16'0 0.0
2017-Oct-17 21:30N 38°06' W 122°16'0 0.0
2017-Oct-17 21:00N 38°06' W 122°16'0 0.0
2017-Oct-17 20:30N 38°06' W 122°16'0 0.0
2017-Oct-17 20:00N 38°06' W 122°16'1 1.9
2017-Oct-17 19:30N 38°05' W 122°15'1326.4
2017-Oct-17 19:00N 37°55' W 122°25'714.6
2017-Oct-17 18:30N 37°48' W 122°24'1325.6
2017-Oct-17 18:01N 38°01' W 122°24'813.8
2017-Oct-17 17:24N 38°06' W 122°16'0 0.0
2017-Oct-17 16:53N 38°06' W 122°16'513.2
2017-Oct-17 16:30N 38°02' W 122°20'1529.6
2017-Oct-17 16:01N 37°48' W 122°24'5 9.1
2017-Oct-17 15:31N 37°52' W 122°25'1428.7
2017-Oct-17 15:00N 38°04' W 122°15'2 4.0
2017-Oct-17 14:30N 38°06' W 122°16'816.6
2017-Oct-17 14:01N 38°01' W 122°24'1325.3
2017-Oct-17 13:30N 37°48' W 122°24'1121.3
2017-Oct-17 13:01N 37°58' W 122°26'1122.2
2017-Oct-17 12:30N 38°06' W 122°16'0 0.0
2017-Oct-17 04:16N 38°06' W 122°16'1 4.3
2017-Oct-17 03:59N 38°05' W 122°15'1327.6
2017-Oct-17 03:31N 37°54' W 122°25'713.6
2017-Oct-17 03:00N 37°48' W 122°24'510.4
2017-Oct-17 02:31N 37°53' W 122°26'1528.7
2017-Oct-17 02:00N 38°05' W 122°15'1 1.8
2017-Oct-17 01:12N 38°06' W 122°16'2 8.5
2017-Oct-17 01:00N 38°05' W 122°15'1326.5
2017-Oct-17 00:31N 37°55' W 122°25'713.7
2017-Oct-17 00:00N 37°48' W 122°24'1020.5
2017-Oct-16 23:30N 37°58' W 122°27'1215.8
2017-Oct-16 22:46N 38°06' W 122°16'0 0.1
2017-Oct-16 19:08N 38°06' W 122°16'0 0.9
2017-Oct-16 18:52N 38°06' W 122°16'514.9
2017-Oct-16 18:30N 38°02' W 122°20'1427.9
2017-Oct-16 18:00N 37°49' W 122°25'1 2.4
2017-Oct-16 17:30N 37°48' W 122°24'1326.1
2017-Oct-16 17:00N 38°01' W 122°23'811.2
2017-Oct-16 16:19N 38°06' W 122°16'1 3.3
2017-Oct-16 16:00N 38°05' W 122°15'1428.3
2017-Oct-16 15:31N 37°54' W 122°25'611.8
2017-Oct-16 15:00N 37°48' W 122°24'1123.1
2017-Oct-16 14:30N 37°59' W 122°25'10 1.0
2017-Oct-16 04:08N 38°06' W 122°16'0 0.0
2017-Oct-16 03:56N 38°06' W 122°16'0 0.0
2017-Oct-16 02:41N 38°06' W 122°16'0 0.9
2017-Oct-16 02:21N 38°06' W 122°16'513.4
2017-Oct-16 02:01N 38°02' W 122°20'1530.0
2017-Oct-16 01:31N 37°48' W 122°24'1 1.5
2017-Oct-16 01:01N 37°49' W 122°23'1530.3
2017-Oct-16 00:31N 38°03' W 122°17'3 5.9
2017-Oct-15 23:57N 38°06' W 122°16'715.2
2017-Oct-15 23:31N 38°01' W 122°22'1325.8
2017-Oct-15 23:00N 37°49' W 122°25'1 2.5
2017-Oct-15 22:30N 37°48' W 122°24'1020.5
2017-Oct-15 22:00N 37°58' W 122°27'12 4.6
2017-Oct-15 19:29N 38°06' W 122°16'4 8.4
2017-Oct-15 19:00N 38°03' W 122°19'1529.8
2017-Oct-15 18:30N 37°49' W 122°25'1 2.4
2017-Oct-15 18:00N 37°48' W 122°24'1325.8
2017-Oct-15 17:31N 38°01' W 122°24'810.6
2017-Oct-15 16:44N 38°06' W 122°16'0 1.3
2017-Oct-15 16:30N 38°06' W 122°16'0 0.0
2017-Oct-15 16:00N 38°06' W 122°16'0 0.0
2017-Oct-15 15:30N 38°06' W 122°16'0 0.0
2017-Oct-15 15:00N 38°06' W 122°16'0 0.0
2017-Oct-15 14:00N 38°06' W 122°16'0 0.0
2017-Oct-15 13:30N 38°06' W 122°16'0 0.0
2017-Oct-15 13:00N 38°06' W 122°16'0 0.0
2017-Oct-15 12:30N 38°06' W 122°16'0 0.0
2017-Oct-15 12:00N 38°06' W 122°16'0 0.0
2017-Oct-15 11:30N 38°06' W 122°16'0 0.0
2017-Oct-15 11:00N 38°06' W 122°16'0 0.0
2017-Oct-15 10:29N 38°06' W 122°16'0 0.0
2017-Oct-15 05:19N 38°06' W 122°16'0 0.0
2017-Oct-15 04:52N 38°06' W 122°16'0 0.0
2017-Oct-15 04:29N 38°06' W 122°16'0 0.0
2017-Oct-15 03:58N 38°06' W 122°16'0 0.0
2017-Oct-15 03:27N 38°06' W 122°16'0 0.0
2017-Oct-15 02:56N 38°06' W 122°16'0 0.5
2017-Oct-15 02:21N 38°06' W 122°16'514.0
2017-Oct-15 02:01N 38°02' W 122°20'1529.5
2017-Oct-15 01:30N 37°48' W 122°24'2 3.7
2017-Oct-15 01:01N 37°50' W 122°24'1529.8
2017-Oct-15 00:30N 38°03' W 122°16'3 4.1
2017-Oct-14 23:52N 38°06' W 122°16'512.8
2017-Oct-14 23:30N 38°02' W 122°19'1428.9
2017-Oct-14 23:01N 37°49' W 122°25'1 2.4
2017-Oct-14 22:30N 37°48' W 122°24'1121.1
2017-Oct-14 22:01N 37°58' W 122°26'1114.7
2017-Oct-14 21:14N 38°06' W 122°16'0 0.2
2017-Oct-14 19:37N 38°06' W 122°16'0 1.0
2017-Oct-14 19:23N 38°06' W 122°16'513.4
2017-Oct-14 19:00N 38°02' W 122°20'1428.2
2017-Oct-14 18:30N 37°49' W 122°25'1 2.4
2017-Oct-14 18:00N 37°48' W 122°24'1225.0
2017-Oct-14 17:30N 38°00' W 122°24'910.2
2017-Oct-14 16:39N 38°06' W 122°16'0 0.0
2017-Oct-14 03:24N 38°06' W 122°16'1 3.6
2017-Oct-14 03:00N 38°05' W 122°15'1327.1
2017-Oct-14 02:31N 37°54' W 122°25'611.7
2017-Oct-14 02:01N 37°49' W 122°24'4 7.9
2017-Oct-14 01:30N 37°52' W 122°25'1529.1
2017-Oct-14 01:00N 38°05' W 122°15'2 2.9
2017-Oct-14 00:26N 38°06' W 122°16'614.6
2017-Oct-14 00:00N 38°02' W 122°21'1428.0
2017-Oct-13 23:31N 37°48' W 122°24'0 0.0
2017-Oct-13 23:01N 37°48' W 122°24'1122.9
2017-Oct-13 22:30N 37°59' W 122°26'1015.0
2017-Oct-13 21:49N 38°06' W 122°16'0 0.1
2017-Oct-13 19:43N 38°06' W 122°16'1 2.6
2017-Oct-13 19:28N 38°06' W 122°15'1124.5
2017-Oct-13 19:00N 37°58' W 122°26'1020.6
2017-Oct-13 18:30N 37°48' W 122°24'1223.3
2017-Oct-13 18:01N 37°59' W 122°26'1020.3
2017-Oct-13 17:30N 38°06' W 122°16'0 0.0
2017-Oct-13 17:00N 38°06' W 122°16'1 1.6
2017-Oct-13 16:30N 38°05' W 122°15'1326.0
2017-Oct-13 16:00N 37°55' W 122°25'815.1
2017-Oct-13 15:31N 37°48' W 122°23'510.4
2017-Oct-13 15:00N 37°48' W 122°17'510.6
2017-Oct-13 14:30N 37°48' W 122°24'1224.6
2017-Oct-13 14:00N 38°00' W 122°24'9 0.8
2017-Oct-13 03:22N 38°06' W 122°16'1 3.1
2017-Oct-13 03:00N 38°05' W 122°15'1327.1
2017-Oct-13 02:31N 37°54' W 122°25'612.7
2017-Oct-13 02:01N 37°48' W 122°24'2 4.1
2017-Oct-13 01:30N 37°50' W 122°25'1529.4
2017-Oct-13 01:00N 38°04' W 122°17'3 4.0
2017-Oct-13 00:21N 38°06' W 122°16'516.1
2017-Oct-13 00:01N 38°02' W 122°20'1428.6
2017-Oct-12 23:30N 37°48' W 122°24'0 0.0
2017-Oct-12 23:01N 37°48' W 122°24'1122.4
2017-Oct-12 22:30N 37°59' W 122°26'11 3.2
2017-Oct-12 19:13N 38°06' W 122°16'0 0.8
2017-Oct-12 18:47N 38°06' W 122°16'413.0
2017-Oct-12 18:30N 38°03' W 122°18'1530.5
2017-Oct-12 18:01N 37°49' W 122°25'1 2.4
2017-Oct-12 17:30N 37°48' W 122°24'1121.3
2017-Oct-12 17:00N 37°58' W 122°26'1120.1
2017-Oct-12 16:27N 38°06' W 122°16'1 3.1
2017-Oct-12 16:00N 38°05' W 122°15'1427.7
2017-Oct-12 15:30N 37°54' W 122°25'612.2
2017-Oct-12 15:00N 37°48' W 122°24'1223.1
2017-Oct-12 14:31N 37°59' W 122°25'1019.4
2017-Oct-12 14:00N 38°06' W 122°16'0 0.4
2017-Oct-12 13:07N 38°06' W 122°16'0 0.0
2017-Oct-12 02:04N 38°06' W 122°16'0 1.0
2017-Oct-12 01:50N 38°06' W 122°16'618.6
2017-Oct-12 01:30N 38°01' W 122°21'1427.5
2017-Oct-12 01:00N 37°48' W 122°24'3 5.7
2017-Oct-12 00:31N 37°51' W 122°25'1530.1
2017-Oct-12 00:00N 38°04' W 122°16'2 3.0
2017-Oct-11 23:18N 38°06' W 122°16'516.8
2017-Oct-11 23:01N 38°02' W 122°19'1529.3
2017-Oct-11 22:30N 37°48' W 122°24'1 2.4
2017-Oct-11 22:00N 37°49' W 122°25'1019.4
2017-Oct-11 21:31N 37°58' W 122°26'1118.8
2017-Oct-11 20:54N 38°06' W 122°16'0 0.0
2017-Oct-11 19:41N 38°06' W 122°16'1 5.2
2017-Oct-11 19:25N 38°05' W 122°15'1229.7
2017-Oct-11 19:00N 37°57' W 122°27'1019.4
2017-Oct-11 18:31N 37°48' W 122°24'1122.7
2017-Oct-11 18:01N 37°59' W 122°26'1010.2
2017-Oct-11 16:59N 38°06' W 122°16'19 1.1
2017-Oct-11 00:00N 37°48' W 122°24'1224.9
2017-Oct-10 23:30N 38°00' W 122°24'917.2
2017-Oct-10 23:00N 38°06' W 122°16'0 0.0
2017-Oct-10 19:44N 38°06' W 122°16'1 4.0
2017-Oct-10 19:30N 38°05' W 122°15'1224.7
2017-Oct-10 19:00N 37°56' W 122°26'917.5
2017-Oct-10 18:30N 37°48' W 122°24'1223.2
2017-Oct-10 18:00N 37°59' W 122°25'1014.1
2017-Oct-10 17:18N 38°06' W 122°16'1 1.3
2017-Oct-10 16:37N 38°05' W 122°15'110.6
2017-Oct-10 16:31N 38°04' W 122°15'1529.8
2017-Oct-10 16:01N 37°51' W 122°24'3 6.4
2017-Oct-10 15:31N 37°48' W 122°23'5 9.9
2017-Oct-10 15:00N 37°48' W 122°17'1413.2
2017-Oct-10 13:57N 38°01' W 122°23'8 0.8
2017-Oct-10 04:26N 38°06' W 122°16'1 3.2
2017-Oct-10 03:59N 38°05' W 122°15'1326.9
2017-Oct-10 03:30N 37°55' W 122°25'714.5
2017-Oct-10 03:00N 37°48' W 122°24'1 2.1
2017-Oct-10 02:31N 37°49' W 122°23'1530.7
2017-Oct-10 02:01N 38°03' W 122°17'3 5.0
2017-Oct-10 01:26N 38°06' W 122°16'716.0
2017-Oct-10 01:00N 38°01' W 122°22'1327.0
2017-Oct-10 00:30N 37°48' W 122°24'0 0.0
2017-Oct-10 00:00N 37°48' W 122°24'1223.2
2017-Oct-09 23:30N 37°59' W 122°25'10 2.5
2017-Oct-09 19:36N 38°06' W 122°16'0 0.5
2017-Oct-09 19:29N 38°06' W 122°16'1223.5
2017-Oct-09 19:00N 37°58' W 122°26'1020.3
2017-Oct-09 18:30N 37°48' W 122°24'1121.9
2017-Oct-09 18:00N 37°59' W 122°26'10 8.5
2017-Oct-09 16:47N 38°05' W 122°15'620.5
2017-Oct-09 16:29N 38°02' W 122°21'1429.0
2017-Oct-09 16:00N 37°48' W 122°24'1 3.0
2017-Oct-09 15:31N 37°49' W 122°24'1530.2
2017-Oct-09 15:00N 38°03' W 122°17'3 5.2
2017-Oct-09 14:30N 38°06' W 122°16'918.2
2017-Oct-09 14:01N 37°60' W 122°24'1224.3
2017-Oct-09 13:31N 37°48' W 122°24'1223.5
2017-Oct-09 13:00N 37°60' W 122°25'10 1.2
2017-Oct-09 04:59N 38°06' W 122°16'714.5
2017-Oct-09 04:30N 38°01' W 122°22'1427.0
2017-Oct-09 04:00N 37°48' W 122°24'1 2.4
2017-Oct-09 03:30N 37°49' W 122°25'1326.6
2017-Oct-09 03:00N 38°02' W 122°22'6 4.5
2017-Oct-09 01:36N 38°06' W 122°16'0 2.5
2017-Oct-09 01:30N 38°06' W 122°16'2 4.4
2017-Oct-09 01:00N 38°04' W 122°15'1427.8
2017-Oct-09 00:30N 37°52' W 122°24'3 6.8
2017-Oct-09 00:01N 37°49' W 122°25'1 1.2
2017-Oct-08 23:30N 37°49' W 122°25'1224.4
2017-Oct-08 23:00N 38°01' W 122°23'710.4
2017-Oct-08 22:18N 38°06' W 122°16'0 0.0
2017-Oct-08 21:51N 38°06' W 122°16'1 3.9
2017-Oct-08 21:30N 38°05' W 122°15'1428.4
2017-Oct-08 21:01N 37°53' W 122°25'510.8
2017-Oct-08 20:31N 37°48' W 122°23'1326.9
2017-Oct-08 20:01N 38°02' W 122°21'610.8
2017-Oct-08 19:26N 38°06' W 122°16'2 4.4
2017-Oct-08 18:59N 38°04' W 122°15'1530.9
2017-Oct-08 18:31N 37°51' W 122°24'1 2.1
2017-Oct-08 18:01N 37°50' W 122°24'1428.8
2017-Oct-08 17:30N 38°03' W 122°17'3 4.2
2017-Oct-08 16:51N 38°06' W 122°16'0 0.0
2017-Oct-08 04:59N 38°06' W 122°16'918.7
2017-Oct-08 04:31N 38°00' W 122°24'1224.7
2017-Oct-08 04:00N 37°48' W 122°24'1 2.4
2017-Oct-08 03:30N 37°49' W 122°25'1224.0
2017-Oct-08 03:01N 38°01' W 122°24'816.9
2017-Oct-08 02:30N 38°06' W 122°16'0 0.5
2017-Oct-08 01:53N 38°06' W 122°16'0 0.5
2017-Oct-08 01:21N 38°06' W 122°16'2 5.8
2017-Oct-08 01:00N 38°04' W 122°15'1427.8
2017-Oct-08 00:31N 37°53' W 122°25'4 7.9
2017-Oct-08 00:00N 37°49' W 122°25'0 0.7
2017-Oct-07 23:30N 37°49' W 122°25'1223.1
2017-Oct-07 23:00N 38°00' W 122°24'  
Track history (hours):
 
Tides and Currents Weather Stations Pressure Air Temp Water Temp Dewpoint Dewpoint Depression Visibility Wind Speed Wind Dir Waves Ship Positions

Mare Island

Owner: San Francisco Bay Area Water Emergency Transportation Authority, Vallejo, CA. More information available from US FCC via Universal Licensing System and Coast Guard Vessel Documentation Center.

Last reported at 2017-Oct-17 22:29 UTC. Time now 2017-Oct-17 22:53 UTC.
Position N 38°06' W 122°16'.

Length 42 m.

Type: Passenger vessel. MMSI: 366989380.

Date/timePositionNaut miles runAvg speedWind from/ knotsBaromVisibWave heightAir tempDewpointWater temp
2017-Oct-17 22:29N 38°06' W 122°16'0 0.0
2017-Oct-17 22:00N 38°06' W 122°16'0 0.0
2017-Oct-17 21:30N 38°06' W 122°16'0 0.0
2017-Oct-17 21:00N 38°06' W 122°16'0 0.0
2017-Oct-17 20:30N 38°06' W 122°16'0 0.0
2017-Oct-17 20:00N 38°06' W 122°16'1 1.9
2017-Oct-17 19:30N 38°05' W 122°15'1326.4
2017-Oct-17 19:00N 37°55' W 122°25'714.6
2017-Oct-17 18:30N 37°48' W 122°24'1325.6
2017-Oct-17 18:01N 38°01' W 122°24'813.8
2017-Oct-17 17:24N 38°06' W 122°16'0 0.0
2017-Oct-17 16:53N 38°06' W 122°16'513.2
2017-Oct-17 16:30N 38°02' W 122°20'1529.6
2017-Oct-17 16:01N 37°48' W 122°24'5 9.1
2017-Oct-17 15:31N 37°52' W 122°25'1428.7
2017-Oct-17 15:00N 38°04' W 122°15'2 4.0
2017-Oct-17 14:30N 38°06' W 122°16'816.6
2017-Oct-17 14:01N 38°01' W 122°24'1325.3
2017-Oct-17 13:30N 37°48' W 122°24'1121.3
2017-Oct-17 13:01N 37°58' W 122°26'1122.2
2017-Oct-17 12:30N 38°06' W 122°16'0 0.0
2017-Oct-17 04:16N 38°06' W 122°16'1 4.3
2017-Oct-17 03:59N 38°05' W 122°15'1327.6
2017-Oct-17 03:31N 37°54' W 122°25'713.6
2017-Oct-17 03:00N 37°48' W 122°24'510.4
2017-Oct-17 02:31N 37°53' W 122°26'1528.7
2017-Oct-17 02:00N 38°05' W 122°15'1 1.8
2017-Oct-17 01:12N 38°06' W 122°16'2 8.5
2017-Oct-17 01:00N 38°05' W 122°15'1326.5
2017-Oct-17 00:31N 37°55' W 122°25'713.7
2017-Oct-17 00:00N 37°48' W 122°24'1020.5
2017-Oct-16 23:30N 37°58' W 122°27'1215.8
2017-Oct-16 22:46N 38°06' W 122°16'0 0.1
2017-Oct-16 19:08N 38°06' W 122°16'0 0.9
2017-Oct-16 18:52N 38°06' W 122°16'514.9
2017-Oct-16 18:30N 38°02' W 122°20'1427.9
2017-Oct-16 18:00N 37°49' W 122°25'1 2.4
2017-Oct-16 17:30N 37°48' W 122°24'1326.1
2017-Oct-16 17:00N 38°01' W 122°23'811.2
2017-Oct-16 16:19N 38°06' W 122°16'1 3.3
2017-Oct-16 16:00N 38°05' W 122°15'1428.3
2017-Oct-16 15:31N 37°54' W 122°25'611.8
2017-Oct-16 15:00N 37°48' W 122°24'1123.1
2017-Oct-16 14:30N 37°59' W 122°25'10 1.0
2017-Oct-16 04:08N 38°06' W 122°16'0 0.0
2017-Oct-16 03:56N 38°06' W 122°16'0 0.0
2017-Oct-16 02:41N 38°06' W 122°16'0 0.9
2017-Oct-16 02:21N 38°06' W 122°16'513.4
2017-Oct-16 02:01N 38°02' W 122°20'1530.0
2017-Oct-16 01:31N 37°48' W 122°24'1 1.5
2017-Oct-16 01:01N 37°49' W 122°23'1530.3
2017-Oct-16 00:31N 38°03' W 122°17'3 5.9
2017-Oct-15 23:57N 38°06' W 122°16'715.2
2017-Oct-15 23:31N 38°01' W 122°22'1325.8
2017-Oct-15 23:00N 37°49' W 122°25'1 2.5
2017-Oct-15 22:30N 37°48' W 122°24'1020.5
2017-Oct-15 22:00N 37°58' W 122°27'12 4.6
2017-Oct-15 19:29N 38°06' W 122°16'4 8.4
2017-Oct-15 19:00N 38°03' W 122°19'1529.8
2017-Oct-15 18:30N 37°49' W 122°25'1 2.4
2017-Oct-15 18:00N 37°48' W 122°24'1325.8
2017-Oct-15 17:31N 38°01' W 122°24'810.6
2017-Oct-15 16:44N 38°06' W 122°16'0 1.3
2017-Oct-15 16:30N 38°06' W 122°16'0 0.0
2017-Oct-15 16:00N 38°06' W 122°16'0 0.0
2017-Oct-15 15:30N 38°06' W 122°16'0 0.0
2017-Oct-15 15:00N 38°06' W 122°16'0 0.0
2017-Oct-15 14:00N 38°06' W 122°16'0 0.0
2017-Oct-15 13:30N 38°06' W 122°16'0 0.0
2017-Oct-15 13:00N 38°06' W 122°16'0 0.0
2017-Oct-15 12:30N 38°06' W 122°16'0 0.0
2017-Oct-15 12:00N 38°06' W 122°16'0 0.0
2017-Oct-15 11:30N 38°06' W 122°16'0 0.0
2017-Oct-15 11:00N 38°06' W 122°16'0 0.0
2017-Oct-15 10:29N 38°06' W 122°16'0 0.0
2017-Oct-15 05:19N 38°06' W 122°16'0 0.0
2017-Oct-15 04:52N 38°06' W 122°16'0 0.0
2017-Oct-15 04:29N 38°06' W 122°16'0 0.0
2017-Oct-15 03:58N 38°06' W 122°16'0 0.0
2017-Oct-15 03:27N 38°06' W 122°16'0 0.0
2017-Oct-15 02:56N 38°06' W 122°16'0 0.5
2017-Oct-15 02:21N 38°06' W 122°16'514.0
2017-Oct-15 02:01N 38°02' W 122°20'1529.5
2017-Oct-15 01:30N 37°48' W 122°24'2 3.7
2017-Oct-15 01:01N 37°50' W 122°24'1529.8
2017-Oct-15 00:30N 38°03' W 122°16'3 4.1
2017-Oct-14 23:52N 38°06' W 122°16'512.8
2017-Oct-14 23:30N 38°02' W 122°19'1428.9
2017-Oct-14 23:01N 37°49' W 122°25'1 2.4
2017-Oct-14 22:30N 37°48' W 122°24'1121.1
2017-Oct-14 22:01N 37°58' W 122°26'1114.7
2017-Oct-14 21:14N 38°06' W 122°16'0 0.2
2017-Oct-14 19:37N 38°06' W 122°16'0 1.0
2017-Oct-14 19:23N 38°06' W 122°16'513.4
2017-Oct-14 19:00N 38°02' W 122°20'1428.2
2017-Oct-14 18:30N 37°49' W 122°25'1 2.4
2017-Oct-14 18:00N 37°48' W 122°24'1225.0
2017-Oct-14 17:30N 38°00' W 122°24'910.2
2017-Oct-14 16:39N 38°06' W 122°16'0 0.0
2017-Oct-14 03:24N 38°06' W 122°16'1 3.6
2017-Oct-14 03:00N 38°05' W 122°15'1327.1
2017-Oct-14 02:31N 37°54' W 122°25'611.7
2017-Oct-14 02:01N 37°49' W 122°24'4 7.9
2017-Oct-14 01:30N 37°52' W 122°25'1529.1
2017-Oct-14 01:00N 38°05' W 122°15'2 2.9
2017-Oct-14 00:26N 38°06' W 122°16'614.6
2017-Oct-14 00:00N 38°02' W 122°21'1428.0
2017-Oct-13 23:31N 37°48' W 122°24'0 0.0
2017-Oct-13 23:01N 37°48' W 122°24'1122.9
2017-Oct-13 22:30N 37°59' W 122°26'1015.0
2017-Oct-13 21:49N 38°06' W 122°16'0 0.1
2017-Oct-13 19:43N 38°06' W 122°16'1 2.6
2017-Oct-13 19:28N 38°06' W 122°15'1124.5
2017-Oct-13 19:00N 37°58' W 122°26'1020.6
2017-Oct-13 18:30N 37°48' W 122°24'1223.3
2017-Oct-13 18:01N 37°59' W 122°26'1020.3
2017-Oct-13 17:30N 38°06' W 122°16'0 0.0
2017-Oct-13 17:00N 38°06' W 122°16'1 1.6
2017-Oct-13 16:30N 38°05' W 122°15'1326.0
2017-Oct-13 16:00N 37°55' W 122°25'815.1
2017-Oct-13 15:31N 37°48' W 122°23'510.4
2017-Oct-13 15:00N 37°48' W 122°17'510.6
2017-Oct-13 14:30N 37°48' W 122°24'1224.6
2017-Oct-13 14:00N 38°00' W 122°24'9 0.8
2017-Oct-13 03:22N 38°06' W 122°16'1 3.1
2017-Oct-13 03:00N 38°05' W 122°15'1327.1
2017-Oct-13 02:31N 37°54' W 122°25'612.7
2017-Oct-13 02:01N 37°48' W 122°24'2 4.1
2017-Oct-13 01:30N 37°50' W 122°25'1529.4
2017-Oct-13 01:00N 38°04' W 122°17'3 4.0
2017-Oct-13 00:21N 38°06' W 122°16'516.1
2017-Oct-13 00:01N 38°02' W 122°20'1428.6
2017-Oct-12 23:30N 37°48' W 122°24'0 0.0
2017-Oct-12 23:01N 37°48' W 122°24'1122.4
2017-Oct-12 22:30N 37°59' W 122°26'11 3.2
2017-Oct-12 19:13N 38°06' W 122°16'0 0.8
2017-Oct-12 18:47N 38°06' W 122°16'413.0
2017-Oct-12 18:30N 38°03' W 122°18'1530.5
2017-Oct-12 18:01N 37°49' W 122°25'1 2.4
2017-Oct-12 17:30N 37°48' W 122°24'1121.3
2017-Oct-12 17:00N 37°58' W 122°26'1120.1
2017-Oct-12 16:27N 38°06' W 122°16'1 3.1
2017-Oct-12 16:00N 38°05' W 122°15'1427.7
2017-Oct-12 15:30N 37°54' W 122°25'612.2
2017-Oct-12 15:00N 37°48' W 122°24'1223.1
2017-Oct-12 14:31N 37°59' W 122°25'1019.4
2017-Oct-12 14:00N 38°06' W 122°16'0 0.4
2017-Oct-12 13:07N 38°06' W 122°16'0 0.0
2017-Oct-12 02:04N 38°06' W 122°16'0 1.0
2017-Oct-12 01:50N 38°06' W 122°16'618.6
2017-Oct-12 01:30N 38°01' W 122°21'1427.5
2017-Oct-12 01:00N 37°48' W 122°24'3 5.7
2017-Oct-12 00:31N 37°51' W 122°25'1530.1
2017-Oct-12 00:00N 38°04' W 122°16'2 3.0
2017-Oct-11 23:18N 38°06' W 122°16'516.8
2017-Oct-11 23:01N 38°02' W 122°19'1529.3
2017-Oct-11 22:30N 37°48' W 122°24'1 2.4
2017-Oct-11 22:00N 37°49' W 122°25'1019.4
2017-Oct-11 21:31N 37°58' W 122°26'1118.8
2017-Oct-11 20:54N 38°06' W 122°16'0 0.0
2017-Oct-11 19:41N 38°06' W 122°16'1 5.2
2017-Oct-11 19:25N 38°05' W 122°15'1229.7
2017-Oct-11 19:00N 37°57' W 122°27'1019.4
2017-Oct-11 18:31N 37°48' W 122°24'1122.7
2017-Oct-11 18:01N 37°59' W 122°26'1010.2
2017-Oct-11 16:59N 38°06' W 122°16'19 1.1
2017-Oct-11 00:00N 37°48' W 122°24'1224.9
2017-Oct-10 23:30N 38°00' W 122°24'917.2
2017-Oct-10 23:00N 38°06' W 122°16'0 0.0
2017-Oct-10 19:44N 38°06' W 122°16'1 4.0
2017-Oct-10 19:30N 38°05' W 122°15'1224.7
2017-Oct-10 19:00N 37°56' W 122°26'917.5
2017-Oct-10 18:30N 37°48' W 122°24'1223.2
2017-Oct-10 18:00N 37°59' W 122°25'1014.1
2017-Oct-10 17:18N 38°06' W 122°16'1 1.3
2017-Oct-10 16:37N 38°05' W 122°15'110.6
2017-Oct-10 16:31N 38°04' W 122°15'1529.8
2017-Oct-10 16:01N 37°51' W 122°24'3 6.4
2017-Oct-10 15:31N 37°48' W 122°23'5 9.9
2017-Oct-10 15:00N 37°48' W 122°17'1413.2
2017-Oct-10 13:57N 38°01' W 122°23'8 0.8
2017-Oct-10 04:26N 38°06' W 122°16'1 3.2
2017-Oct-10 03:59N 38°05' W 122°15'1326.9
2017-Oct-10 03:30N 37°55' W 122°25'714.5
2017-Oct-10 03:00N 37°48' W 122°24'1 2.1
2017-Oct-10 02:31N 37°49' W 122°23'1530.7
2017-Oct-10 02:01N 38°03' W 122°17'3 5.0
2017-Oct-10 01:26N 38°06' W 122°16'716.0
2017-Oct-10 01:00N 38°01' W 122°22'1327.0
2017-Oct-10 00:30N 37°48' W 122°24'0 0.0
2017-Oct-10 00:00N 37°48' W 122°24'1223.2
2017-Oct-09 23:30N 37°59' W 122°25'10 2.5
2017-Oct-09 19:36N 38°06' W 122°16'0 0.5
2017-Oct-09 19:29N 38°06' W 122°16'1223.5
2017-Oct-09 19:00N 37°58' W 122°26'1020.3
2017-Oct-09 18:30N 37°48' W 122°24'1121.9
2017-Oct-09 18:00N 37°59' W 122°26'10 8.5
2017-Oct-09 16:47N 38°05' W 122°15'620.5
2017-Oct-09 16:29N 38°02' W 122°21'1429.0
2017-Oct-09 16:00N 37°48' W 122°24'1 3.0
2017-Oct-09 15:31N 37°49' W 122°24'1530.2
2017-Oct-09 15:00N 38°03' W 122°17'3 5.2
2017-Oct-09 14:30N 38°06' W 122°16'918.2
2017-Oct-09 14:01N 37°60' W 122°24'1224.3
2017-Oct-09 13:31N 37°48' W 122°24'1223.5
2017-Oct-09 13:00N 37°60' W 122°25'10 1.2
2017-Oct-09 04:59N 38°06' W 122°16'714.5
2017-Oct-09 04:30N 38°01' W 122°22'1427.0
2017-Oct-09 04:00N 37°48' W 122°24'1 2.4
2017-Oct-09 03:30N 37°49' W 122°25'1326.6
2017-Oct-09 03:00N 38°02' W 122°22'6 4.5
2017-Oct-09 01:36N 38°06' W 122°16'0 2.5
2017-Oct-09 01:30N 38°06' W 122°16'2 4.4
2017-Oct-09 01:00N 38°04' W 122°15'1427.8
2017-Oct-09 00:30N 37°52' W 122°24'3 6.8
2017-Oct-09 00:01N 37°49' W 122°25'1 1.2
2017-Oct-08 23:30N 37°49' W 122°25'1224.4
2017-Oct-08 23:00N 38°01' W 122°23'710.4
2017-Oct-08 22:18N 38°06' W 122°16'0 0.0
2017-Oct-08 21:51N 38°06' W 122°16'1 3.9
2017-Oct-08 21:30N 38°05' W 122°15'1428.4
2017-Oct-08 21:01N 37°53' W 122°25'510.8
2017-Oct-08 20:31N 37°48' W 122°23'1326.9
2017-Oct-08 20:01N 38°02' W 122°21'610.8
2017-Oct-08 19:26N 38°06' W 122°16'2 4.4
2017-Oct-08 18:59N 38°04' W 122°15'1530.9
2017-Oct-08 18:31N 37°51' W 122°24'1 2.1
2017-Oct-08 18:01N 37°50' W 122°24'1428.8
2017-Oct-08 17:30N 38°03' W 122°17'3 4.2
2017-Oct-08 16:51N 38°06' W 122°16'0 0.0
2017-Oct-08 04:59N 38°06' W 122°16'918.7
2017-Oct-08 04:31N 38°00' W 122°24'1224.7
2017-Oct-08 04:00N 37°48' W 122°24'1 2.4
2017-Oct-08 03:30N 37°49' W 122°25'1224.0
2017-Oct-08 03:01N 38°01' W 122°24'816.9
2017-Oct-08 02:30N 38°06' W 122°16'0 0.5
2017-Oct-08 01:53N 38°06' W 122°16'0 0.5
2017-Oct-08 01:21N 38°06' W 122°16'2 5.8
2017-Oct-08 01:00N 38°04' W 122°15'1427.8
2017-Oct-08 00:31N 37°53' W 122°25'4 7.9
2017-Oct-08 00:00N 37°49' W 122°25'0 0.7
2017-Oct-07 23:30N 37°49' W 122°25'1223.1
2017-Oct-07 23:00N 38°00' W 122°24'  

Dump ship's entire track history